Weather History for HKMO - January, 2014

Change the Weather History Date:

Friday, January 3, 2014

  Actual Average Record
Temperature  
Mean Temperature 82 °F -  
Max Temperature 92 °F 92 °F 93 °F (2005)
Min Temperature 72 °F 72 °F 72 °F (2014)
Cooling Degree Days 17    
Growing Degree Days 32 (Base 50)    
Moisture  
Dew Point 71 °F    
Average Humidity 71    
Maximum Humidity 94    
Minimum Humidity 39    
Precipitation  
Precipitation 0.00 in 0.04 in - ()
Sea Level Pressure  
Sea Level Pressure 29.86 in    
Wind  
Wind Speed 7 mph ()    
Max Wind Speed 21 mph    
Max Gust Speed -    
Visibility 9.9 miles    
Events      
Averages and records for this station are not official NWS values.
T = Trace of Precipitation, MM = Missing Value Source: Averaged Metar Reports

Daily Weather History Graph

Daily Weather History Graph

Search for Another Location

Airport or City:

Trip Planner

Search our weather history database for the weather conditions in past years. The results will help you decide how hot, cold, wet, or windy it might be!

Date:

Astronomy

Jan. 03, 2014 Rise Set
Actual Time 6:15 AM EAT 6:36 PM EAT
Civil Twilight 5:52 AM EAT 6:59 PM EAT
Nautical Twilight 5:26 AM EAT 7:25 PM EAT
Astronomical Twilight 4:59 AM EAT 7:51 PM EAT
Moon 8:01 AM EAT (1/3) 8:36 PM EAT (1/3)
Length of Visible Light 13h 06m
Length of Day
12h 21m
Waxing Crescent, 5% of the Moon is Illuminated
Jan 3
Waxing Crescent
Jan 8
First Quarter
Jan 16
Full
Jan 24
Last Quarter
Jan 31
New

Hourly Weather History & Observations

Time (EAT) Temp. Heat Index Dew Point Humidity Pressure Visibility Wind Dir Wind Speed Gust Speed Precip Events Conditions
12:00 AM 77 °F - 73 °F 83% 29.88 in 19 mi NNE 5.8 mph - -   Scattered Clouds
12:00 AM 77.0 °F - 73.4 °F 89% 29.89 in 6.2 mi NNE 5.8 mph - N/A   Partly Cloudy
2:00 AM 75.2 °F - 73.4 °F 94% 29.86 in 6.2 mi Calm Calm - N/A   Partly Cloudy
3:00 AM 75 °F - 72 °F 89% 29.86 in 19 mi Calm Calm - -   Partly Cloudy
3:00 AM 75.2 °F - 71.6 °F 89% 29.86 in 6.2 mi Calm Calm - N/A   Scattered Clouds
4:00 AM 75.2 °F - 71.6 °F 89% 29.86 in 6.2 mi Calm Calm - N/A   Scattered Clouds
5:00 AM 75.2 °F - 71.6 °F 89% 29.86 in 6.2 mi Calm Calm - N/A   Scattered Clouds
6:00 AM 74 °F - 72 °F 90% 29.89 in 19 mi Calm Calm - -   Partly Cloudy
6:00 AM 75.2 °F - 71.6 °F 89% 29.89 in 6.2 mi West 5.8 mph - N/A   Scattered Clouds
8:00 AM 78.8 °F - 77.0 °F 94% 29.92 in 6.2 mi NNW 5.8 mph - N/A   Partly Cloudy
9:00 AM 82 °F - 73 °F 68% 29.94 in 19 mi North 9.2 mph - -   Mostly Cloudy
9:00 AM 82.4 °F 88.2 °F 73.4 °F 74% 29.95 in 6.2 mi North 9.2 mph - N/A   Mostly Cloudy
10:00 AM 86.0 °F 91.8 °F 71.6 °F 62% 29.92 in 6.2 mi NE 9.2 mph - N/A   Mostly Cloudy
11:00 AM 87.8 °F 92.6 °F 69.8 °F 55% 29.89 in 6.2 mi NNE 8.1 mph - N/A   Scattered Clouds
12:00 PM 90 °F - 68 °F 39% 29.88 in 19 mi North 8.1 mph - -   Partly Cloudy
12:00 PM 89.6 °F 93.4 °F 68.0 °F 49% 29.89 in 6.2 mi North 8.1 mph - N/A   Scattered Clouds
1:00 PM 91.4 °F 95.4 °F 68.0 °F 46% 29.83 in 6.2 mi East 15.0 mph - N/A   Partly Cloudy
2:00 PM 91.4 °F 95.4 °F 68.0 °F 46% 29.80 in 6.2 mi East 20.7 mph - N/A   Partly Cloudy
3:00 PM 89 °F - 71 °F 45% 29.80 in 19 mi East 17.3 mph - -   Scattered Clouds
3:00 PM 89.6 °F 94.7 °F 69.8 °F 52% 29.80 in 6.2 mi East 17.3 mph - N/A   Partly Cloudy
4:00 PM 87.8 °F 92.6 °F 69.8 °F 55% 29.80 in 6.2 mi ENE 18.4 mph - N/A   Partly Cloudy
6:00 PM 83 °F - 70 °F 57% 29.80 in 19 mi NE 17.3 mph - -   Scattered Clouds
6:00 PM 82.4 °F 86.3 °F 69.8 °F 66% 29.80 in 6.2 mi NE 17.3 mph - N/A   Partly Cloudy
7:00 PM 80.6 °F 84.6 °F 71.6 °F 74% 29.83 in 6.2 mi NE 20.7 mph - N/A   Partly Cloudy
8:00 PM 80.6 °F 84.6 °F 71.6 °F 74% 29.83 in 6.2 mi ENE 11.5 mph - N/A   Partly Cloudy
9:00 PM 80 °F - 72 °F 70% 29.86 in 19 mi ENE 11.5 mph - -   Scattered Clouds
9:00 PM 80.6 °F 84.6 °F 71.6 °F 74% 29.86 in 6.2 mi ENE 11.5 mph - N/A   Partly Cloudy
10:00 PM 80.6 °F 85.4 °F 73.4 °F 79% 29.86 in 6.2 mi ENE 9.2 mph - N/A   Partly Cloudy